[[{"header":{"parameterUnit":"m.s-1","parameterCategory":1,"la1":30.2991,"la2":30.254,"lo1":-89.0895,"lo2":-89.0444,"dx":0.0017,"dy":0.0017,"nx":28,"ny":28,"refTime":"2022-12-03T09:00:00:Z","depth":0,"parameterNumber":2,"parameterNumberName":"U-component_of_WINDS"},"data":[0,0,0,0,0,0,0,0,0,0,0,0,0,0,0,0,0,0,0,0,0,0,0,0,0,0,0,0,0,0,0,0,0,0,0,0,0,0,0,0,0,0,0,0,0,0,0,0,0,0,0,0,0,0,0,0,0,0,0.5184,0.5184,0,0.5198,0.5198,0.5198,0.518,0.518,0.5179,0.5178,0.5195,0.5196,0.5197,0,0,0,0,0,0,0,0,0,0,0,0,0,0.5143,0.5144,0.5184,0.5184,0.5184,0.5198,0.5198,0.5198,0.5181,0.518,0.5179,0.5178,0.5194,0.5196,0.5197,0,0,0,0,0,0,0,0,0,0,0,0,0,0.5159,0.5144,0.5184,0.5177,0.5176,0.5198,0.5198,0.5198,0.5181,0.518,0.5179,0.5178,0.5194,0.5195,0.5197,0.5226,0,0,0.5202,0.5202,0,0,0,0,0,0,0,0,0.5158,0.5161,0.5178,0.5177,0.5177,0.5186,0.5189,0.5208,0.5181,0.5179,0.5178,0.5177,0.5193,0.5194,0.5199,0.5227,0.5228,0.5202,0.5203,0.5203,0.5204,0,0,0,0,0,0,0,0.5157,0.516,0.5189,0.5178,0.5178,0.5174,0.5175,0.5193,0.5191,0.5179,0.5178,0.518,0.5192,0.5198,0.5199,0.5228,0.5202,0.5203,0.5204,0.5205,0.528,0.5281,0,0,0,0,0,0,0.5157,0.5159,0.5189,0.519,0.5165,0.5175,0.5176,0.5184,0.5191,0.5191,0.5181,0.5179,0.5196,0.5198,0.52,0.5234,0.5203,0.5205,0.5206,0.5279,0.528,0.5281,0,0,0,0,0,0,0.5156,0.5159,0.5188,0.5174,0.5177,0.5177,0.5186,0.5185,0.519,0.5192,0.5192,0.5186,0.5195,0.5198,0.5219,0.5234,0.5206,0.5207,0.5277,0.5279,0.528,0.5303,0,0,0,0,0,0,0.5155,0.5159,0.517,0.5174,0.5178,0.5207,0.5187,0.5186,0.5193,0.5191,0.5197,0.5197,0.5194,0.5217,0.5221,0.5236,0.5208,0.5276,0.5278,0.528,0.5301,0.5305,0.5309,0,0,0,0,0,0.5153,0.5176,0.5171,0.5174,0.5192,0.5208,0.521,0.5206,0.5194,0.5205,0.5206,0.5197,0.5232,0.522,0.5224,0.5239,0.5275,0.5277,0.528,0.5299,0.5304,0.5309,0,0,0,0,0,0,0.5175,0.5177,0.5171,0.5196,0.5202,0.5205,0.5219,0.5212,0.5221,0.5219,0.5214,0.5215,0.5238,0.5241,0.5227,0.5268,0.5252,0.5255,0.5265,0.527,0.5274,0.5273,0.521,0,0,0,0,0,0.5182,0.5195,0.5196,0.5218,0.5222,0.522,0.5227,0.5223,0.5229,0.5232,0.5234,0.5241,0.5253,0.5262,0.5274,0.5301,0.5302,0.5314,0.5318,0.5321,0.5324,0.5338,0.5343,0.5289,0.5289,0.5289,0,0,0.5198,0.5201,0.5209,0.5223,0.5227,0.524,0.5222,0.5237,0.5247,0.5234,0.5254,0.5257,0.5264,0.5289,0.53,0.5292,0.5339,0.5324,0.5327,0.5328,0.5341,0.5346,0.5351,0.529,0.529,0.529,0,0,0.5233,0.5237,0.5255,0.526,0.5266,0.5265,0.5269,0.5273,0.5274,0.5294,0.5284,0.5296,0.5318,0.5324,0.5329,0.5366,0.5358,0.537,0.5391,0.5405,0.5409,0.5413,0.5426,0.543,0.5373,0.5373,0.5373,0,0.5252,0.5272,0.5266,0.5282,0.5288,0.5276,0.5294,0.5299,0.5309,0.5314,0.5305,0.5331,0.5335,0.536,0.5369,0.5374,0.5379,0.5369,0.5409,0.5412,0.5416,0.5428,0.5433,0.5375,0.5374,0.5374,0.5374,0,0.5295,0.5309,0.5323,0.5332,0.534,0.5357,0.5354,0.5362,0.5357,0.5357,0.5377,0.5382,0.5394,0.54,0.5395,0.5424,0.5419,0.541,0.5393,0.5423,0.5434,0.5439,0.5377,0.5376,0.5376,0.5375,0,0,0.5344,0.5349,0.5355,0.5358,0.5364,0.5375,0.5392,0.5403,0.541,0.5417,0.5431,0.5449,0.544,0.5447,0.5443,0.5455,0.5483,0.5444,0.5444,0.5451,0.5515,0.5522,0.5528,0.5478,0.5479,0.548,0.5514,0,0.5379,0.5407,0.5402,0.543,0.5442,0.5431,0.5445,0.545,0.545,0.5461,0.5461,0.5474,0.5461,0.5465,0.5477,0.5478,0.5496,0.5475,0.5491,0.5492,0.5489,0.5534,0.5541,0.5574,0.5519,0.552,0.552,0,0.5424,0.5432,0.5461,0.5464,0.5469,0.5482,0.5492,0.5502,0.5508,0.5507,0.5514,0.5507,0.5524,0.5508,0.553,0.5516,0.5522,0.5524,0.5525,0.5526,0.5508,0.5536,0.5584,0.5589,0.5527,0.5527,0.5526,0,0.5457,0.5475,0.5494,0.5498,0.5503,0.5512,0.5514,0.5519,0.5526,0.5534,0.5538,0.5549,0.5555,0.5563,0.556,0.5548,0.5583,0.5567,0.5583,0.5583,0.5591,0.559,0.564,0.5595,0.5595,0.5595,0.5595,0,0.5496,0.5514,0.5509,0.5521,0.554,0.5534,0.5554,0.5555,0.5559,0.5571,0.5562,0.5574,0.5569,0.558,0.5578,0.5597,0.56,0.5599,0.5598,0.56,0.56,0.5604,0.5601,0.5597,0.5596,0.5596,0.5596,0,0.5536,0.5533,0.5553,0.5556,0.5557,0.5571,0.5573,0.5584,0.5583,0.5599,0.5602,0.5601,0.5613,0.5611,0.5625,0.5624,0.5647,0.5644,0.5645,0.5644,0.566,0.5659,0.5714,0.5721,0.5672,0.5673,0.5673,0,0.5561,0.5575,0.5578,0.5585,0.5588,0.56,0.5606,0.5601,0.5608,0.5616,0.5626,0.5638,0.5647,0.5668,0.5668,0.5679,0.5675,0.5694,0.5677,0.5678,0.5675,0.5674,0.5675,0.5697,0.5698,0.5699,0.5699,0,0.5606,0.5604,0.5614,0.5623,0.5631,0.5638,0.5644,0.5651,0.5646,0.5654,0.5667,0.5674,0.5688,0.57,0.5709,0.5712,0.5705,0.5704,0.5708,0.571,0.571,0.571,0.5654,0.5703,0.5703,0.5702,0.5702,0.5702,0.5639,0.565,0.5654,0.5665,0.5669,0.5675,0.5685,0.5685,0.5696,0.5706,0.5703,0.5717,0.5722,0.5734,0.5738,0.5749,0.5742,0.5749,0.575,0.5752,0.5753,0.5708,0.5751,0.5751,0.5751,0.5751,0.5751,0,0.5683,0.5685,0.5695,0.5704,0.5712,0.5704,0.571,0.5718,0.5731,0.5736,0.5745,0.5759,0.577,0.5771,0.5782,0.579,0.5787,0.5793,0.5792,0.5793,0.5759,0.5754,0.5796,0.5796,0.5796,0.5796,0.5796,0.5796,0.5707,0.5725,0.5723,0.5743,0.5745,0.5758,0.5762,0.5768,0.5772,0.5788,0.5797,0.5797,0.5801,0.5812,0.5822,0.5822,0.5826,0.5833,0.5832,0.58,0.5796,0.5791,0.5787,0.5834,0.5834,0.5865,0.5865,0.5865]},{"header":{"parameterUnit":"m.s-1","parameterCategory":1,"la1":30.2991,"la2":30.254,"lo1":-89.0895,"lo2":-89.0444,"dx":0.0017,"dy":0.0017,"nx":28,"ny":28,"refTime":"2022-12-03T09:00:00:Z","depth":0,"parameterNumber":3,"parameterNumberName":"V-component_of_WINDS"},"data":[0,0,0,0,0,0,0,0,0,0,0,0,0,0,0,0,0,0,0,0,0,0,0,0,0,0,0,0,0,0,0,0,0,0,0,0,0,0,0,0,0,0,0,0,0,0,0,0,0,0,0,0,0,0,0,0,0,0,0.891,0.8909,0,0.8874,0.8874,0.8873,0.8854,0.8854,0.8854,0.8854,0.8815,0.8814,0.8813,0,0,0,0,0,0,0,0,0,0,0,0,0,0.8958,0.8957,0.891,0.8909,0.8909,0.8874,0.8874,0.8873,0.8854,0.8854,0.8854,0.8854,0.8815,0.8814,0.8813,0,0,0,0,0,0,0,0,0,0,0,0,0,0.8931,0.8957,0.891,0.8895,0.8894,0.8874,0.8874,0.8873,0.8854,0.8854,0.8854,0.8854,0.8815,0.8814,0.8812,0.8804,0,0,0.8808,0.8807,0,0,0,0,0,0,0,0,0.8933,0.8929,0.8898,0.8896,0.8894,0.8869,0.8876,0.885,0.8854,0.8869,0.8854,0.8854,0.8832,0.883,0.8823,0.8802,0.88,0.8808,0.8807,0.8806,0.8806,0,0,0,0,0,0,0,0.8934,0.8931,0.8895,0.8897,0.8895,0.8889,0.8886,0.8871,0.8851,0.8868,0.8866,0.8863,0.8831,0.8824,0.8822,0.8799,0.8808,0.8806,0.8805,0.8805,0.8768,0.8768,0,0,0,0,0,0,0.8939,0.8932,0.8897,0.8894,0.8914,0.8889,0.8884,0.8877,0.8852,0.8848,0.8863,0.8862,0.8827,0.8824,0.882,0.8808,0.8806,0.8805,0.8804,0.8768,0.8768,0.8768,0,0,0,0,0,0,0.894,0.8936,0.8898,0.8913,0.8908,0.8888,0.888,0.8876,0.8869,0.8848,0.8844,0.8859,0.8827,0.8822,0.8808,0.8806,0.8804,0.8802,0.8768,0.8768,0.8768,0.8783,0,0,0,0,0,0,0.8942,0.8937,0.8934,0.8913,0.8907,0.8887,0.888,0.8876,0.8867,0.8866,0.8843,0.884,0.8827,0.881,0.8806,0.8804,0.8801,0.8768,0.8768,0.8768,0.8783,0.8784,0.8784,0,0,0,0,0,0.8943,0.8939,0.8934,0.893,0.8903,0.8887,0.8884,0.887,0.8867,0.8863,0.8849,0.884,0.8807,0.8809,0.8804,0.8802,0.8768,0.8768,0.8768,0.8782,0.8784,0.8784,0,0,0,0,0,0,0.8959,0.8936,0.893,0.8919,0.8906,0.8884,0.888,0.8871,0.8857,0.8857,0.8839,0.8834,0.8821,0.8809,0.8812,0.8791,0.8787,0.8786,0.8799,0.88,0.8801,0.8804,0.88,0,0,0,0,0,0.8962,0.8952,0.8931,0.8924,0.8917,0.89,0.8892,0.8882,0.8867,0.8861,0.8846,0.883,0.8816,0.8807,0.8793,0.8781,0.8775,0.8777,0.8778,0.8778,0.8778,0.8769,0.8769,0.8768,0.8768,0.8768,0,0,0.8966,0.8952,0.8947,0.8926,0.8915,0.8904,0.8895,0.8884,0.8875,0.8859,0.8844,0.8833,0.8814,0.8801,0.8794,0.8791,0.8777,0.8778,0.8779,0.8778,0.8769,0.8769,0.8769,0.8768,0.8768,0.8768,0,0,0.8969,0.8958,0.895,0.8938,0.8921,0.8909,0.8907,0.8887,0.8879,0.8864,0.8852,0.8841,0.8817,0.8804,0.8795,0.8792,0.8782,0.8787,0.8792,0.8784,0.8784,0.8784,0.8782,0.8782,0.8787,0.8787,0.8787,0,0.8976,0.896,0.8946,0.8936,0.8927,0.8913,0.8904,0.8893,0.8871,0.8865,0.8862,0.8832,0.8818,0.8801,0.8801,0.8793,0.879,0.879,0.8785,0.8785,0.8785,0.8783,0.8783,0.8787,0.8787,0.8787,0.8787,0,0.897,0.8959,0.8954,0.8935,0.8925,0.8916,0.8899,0.8891,0.8882,0.887,0.8854,0.8838,0.882,0.8815,0.8806,0.8796,0.8795,0.8789,0.8784,0.8786,0.8784,0.8783,0.8789,0.8788,0.8788,0.8788,0,0,0.8982,0.8955,0.8953,0.8944,0.8924,0.8914,0.8903,0.8887,0.888,0.8865,0.8855,0.8835,0.8829,0.8818,0.8807,0.88,0.8798,0.8795,0.8794,0.8796,0.8786,0.879,0.879,0.8792,0.8792,0.8792,0.8787,0,0.8981,0.8962,0.8949,0.8935,0.8924,0.891,0.89,0.8886,0.8874,0.8862,0.8849,0.8835,0.8829,0.8822,0.8815,0.88,0.8796,0.88,0.8781,0.8781,0.8786,0.8789,0.8793,0.879,0.8786,0.8786,0.8786,0,0.8978,0.8965,0.895,0.893,0.8925,0.8917,0.89,0.8889,0.8872,0.8864,0.8852,0.8841,0.8827,0.8824,0.8804,0.8807,0.8799,0.879,0.8789,0.8787,0.8783,0.8786,0.8789,0.8788,0.8785,0.8785,0.8785,0,0.8987,0.8966,0.8954,0.8946,0.8923,0.8918,0.8908,0.8891,0.8881,0.8866,0.886,0.8843,0.8834,0.882,0.8804,0.8803,0.8786,0.8781,0.8778,0.8779,0.8775,0.8776,0.8776,0.877,0.877,0.877,0.877,0,0.8988,0.8979,0.8958,0.8951,0.894,0.8924,0.8914,0.8902,0.8887,0.8876,0.8863,0.8853,0.8832,0.8819,0.8806,0.8792,0.8788,0.878,0.8777,0.8781,0.8782,0.8775,0.8775,0.877,0.877,0.877,0.877,0,0.8997,0.8982,0.8968,0.8948,0.8942,0.8935,0.8917,0.8909,0.8896,0.8883,0.8879,0.8859,0.8843,0.8826,0.8803,0.8795,0.878,0.8776,0.8787,0.8785,0.8782,0.8783,0.8778,0.8776,0.8772,0.8772,0.8772,0,0.8998,0.8991,0.897,0.8962,0.8953,0.8941,0.8931,0.8915,0.8905,0.8885,0.8879,0.8862,0.8848,0.8823,0.8805,0.8788,0.8783,0.8782,0.878,0.8784,0.8782,0.8783,0.8781,0.8783,0.8783,0.8783,0.8783,0,0.9002,0.8995,0.8982,0.8967,0.8957,0.8944,0.893,0.8924,0.8905,0.8895,0.8879,0.8868,0.8845,0.8828,0.8809,0.8797,0.8786,0.8784,0.8783,0.8787,0.8793,0.8789,0.8788,0.8784,0.8784,0.8784,0.8784,0.8784,0.9006,0.8999,0.8983,0.897,0.8958,0.8945,0.8937,0.8923,0.891,0.8891,0.8882,0.8866,0.8848,0.8821,0.8809,0.8795,0.8792,0.879,0.8789,0.8789,0.879,0.8796,0.8792,0.8792,0.8792,0.8792,0.8792,0,0.9009,0.8998,0.8986,0.8967,0.8956,0.8949,0.8933,0.8924,0.891,0.8895,0.8881,0.8862,0.8846,0.8827,0.8809,0.8801,0.8796,0.8797,0.8797,0.8794,0.8794,0.8797,0.8802,0.8802,0.8802,0.8802,0.8802,0.8802,0.9009,0.8996,0.8988,0.8969,0.8957,0.8942,0.8934,0.8922,0.891,0.889,0.8876,0.8864,0.8847,0.8828,0.8812,0.8806,0.88,0.8802,0.8796,0.8795,0.8795,0.8794,0.8797,0.8801,0.8801,0.8798,0.8798,0.8798]}]]